STARLINK-32873, 62857

Orbit data source: Space-Track

STARLINK-32873, 62857 is a payload satellite owned by SpaceX/Seattle (US) in LEO that was launched on Sat, 01 Feb 2025 UTC via an FALCON 9 launch vehicle from the Air Force Western Test Range (AFWTR). Payload-class satellites include a variety of spacecraft equipped with specific instruments for various scientific and technological missions. These include communications satellites like Starlink; space stations such as the ISS; scientific satellites like the Hubble; Earth observation satellites from companies like Planet Labs, Umbra, and HawkEye 360; GPS; miniature CubeSats for education and research; and military/defense satellites.

Loading next visibility...
Identifier
62857, 2025-022D
Orbit
LEO
Country
Flag of USUS
Related business
Manufacturer
SpaceX/Seattle
Mission
Operational Commercial Communications
Bus & Motor
STARLINK V2M, Unknown motor
Mass
730 kg wet, ~700 kg dry
Launch date (UTC)
2025-02-01 (9 months ago)
Launch vehicle
FALCON 9
Launch site
Air Force Western Test Range (AFWTR)
Object type
Payload
Rocket body
Debris
Shape & HBR
Box + 2 Pan, 17.7 m
Radar Cross Section
33.884 m², Large (>1 m²)

Expand to show TLE details & history
Last TLE update: 1 day ago

TLE from 1 day ago
0 STARLINK-32873
1 62857U 25022D   25306.43830700  .00025376  00000-0  86566-3 0  9997
2 62857  53.1593   0.9517 0001387  85.6334 274.4825 15.30212104 42418
Epoch: 2025-11-02T10:31Z
TLE epoch observation values (Epoch: 2025-11-02T10:31:09.724Z)
Latitude
-0.00006°
Longitude
161.20711°
Altitude
476.004 km
Speed
7.629 km/s
True Right ascension
00h 03m 48s
True Declination
0° 00' 00"
Sunlit
Object was in full shadow at epoch
Visualization orbit readout
Latitude
Unknown
Longitude
Unknown
Altitude
Unknown
Speed
Unknown
Apparent Right ascension
Unknown
Apparent Declination
Unknown
Sunlit
N/A
Visualization observer readout
Local Sidereal Time
14:17:29
Azimuth
Unknown
Elevation
Unknown
Doppler factor
Unknown
Orbital elements
Apogee altitude
476.386 km
Perigee altitude
474.485 km
Semi-major axis
6,853.572 km
Eccentricity
0.00014
Inclination
53.1593°
RAAN
0.9517°
Arg. of periapsis
85.6334°
True anomaly
274.46665°
Mean anomaly
274.4825°
Eccentric anomaly
274.47458°
Mean motion
3.82532 °/min
Orbital period
94.11 mins
BSTAR
0.00086566
Loading maneuver chart data...
Computing Atmospheric mass density...
Loading historical data...
Loading historical data...
Loading historical data...
Loading historical data...
Loading historical data...
Loading historical data...
Loading historical data...

Documentation

Showing up to 5 results
|